Location: Appeville
(49.3218°N, 1.3427°W)
Time: 20:14:16
(UTC+00:00)

Cosmos 2227 - Pass Details

Date: 08 December 2019
Orbit: 834 x 862 km, 71.0° (Epoch: 24 January)

Event Time Altitude Azimuth Distance (km) Brightness Sun altitude
Rises 05:38:17 0° 203° (SSW) 3,418 7.3 -20.0°
Reaches altitude 10° 05:40:43 10° 202° (SSW) 2,489 6.5 -19.6°
Maximum altitude 05:46:27 82° 116° (ESE) 877 4.3 -18.7°
Drops below altitude 10° 05:52:14 10° 30° (NNE) 2,511 6.8 -17.8°
Sets 05:54:42 0° 30° (NNE) 3,452 7.6 -17.4°
